Time,TemperatureF,DewpointF,PressureIn,WindDirection,WindDirectionDegrees,WindSpeedMPH,WindSpeedGustMPH,Humidity,HourlyPrecipIn,Conditions,Clouds,dailyrainin,SoftwareType,DateUTC
2013-08-15 00:03:00,63.8,56.0,30.12,NNE,20,3.0,7.0,75,0.00,,,0.00,weatherlink.com 1.10,2013-08-15 04:03:00,
2013-08-15 00:18:00,63.8,55.0,30.12,NNE,13,4.0,12.0,74,0.00,,,0.00,weatherlink.com 1.10,2013-08-15 04:18:00,
2013-08-15 00:33:00,63.6,56.0,30.12,ENE,66,4.0,8.0,75,0.00,,,0.00,weatherlink.com 1.10,2013-08-15 04:33:00,
2013-08-15 00:48:00,62.9,56.0,30.12,ENE,62,2.0,6.0,77,0.00,,,0.00,weatherlink.com 1.10,2013-08-15 04:48:00,
2013-08-15 01:03:00,62.7,55.0,30.11,NNE,27,3.0,7.0,77,0.00,,,0.00,weatherlink.com 1.10,2013-08-15 05:03:00,
2013-08-15 01:18:00,62.7,55.0,30.12,NE,56,5.0,7.0,76,0.00,,,0.00,weatherlink.com 1.10,2013-08-15 05:18:00,
2013-08-15 01:33:00,62.5,55.0,30.11,NNE,27,1.0,4.0,77,0.00,,,0.00,weatherlink.com 1.10,2013-08-15 05:33:00,
2013-08-15 01:48:00,62.2,55.0,30.12,NE,34,2.0,5.0,78,0.00,,,0.00,weatherlink.com 1.10,2013-08-15 05:48:00,
2013-08-15 02:03:00,62.3,55.0,30.11,NNE,31,2.0,5.0,77,0.00,,,0.00,weatherlink.com 1.10,2013-08-15 06:03:00,
2013-08-15 02:18:00,62.1,55.0,30.12,NE,51,2.0,4.0,77,0.00,,,0.00,weatherlink.com 1.10,2013-08-15 06:18:00,
2013-08-15 02:33:00,62.2,55.0,30.11,NE,41,2.0,5.0,77,0.00,,,0.00,weatherlink.com 1.10,2013-08-15 06:33:00,
2013-08-15 02:48:00,62.1,55.0,30.11,NNE,21,2.0,4.0,77,0.00,,,0.00,weatherlink.com 1.10,2013-08-15 06:48:00,
2013-08-15 03:04:00,61.8,55.0,30.11,NE,42,1.0,4.0,78,0.00,,,0.00,weatherlink.com 1.10,2013-08-15 07:04:00,
2013-08-15 03:19:00,61.8,55.0,30.11,North,356,0.0,6.0,77,0.00,,,0.00,weatherlink.com 1.10,2013-08-15 07:19:00,
2013-08-15 03:34:00,61.5,55.0,30.11,NNW,333,1.0,5.0,78,0.00,,,0.00,weatherlink.com 1.10,2013-08-15 07:34:00,
2013-08-15 03:49:00,61.4,55.0,30.10,NNE,21,1.0,4.0,78,0.00,,,0.00,weatherlink.com 1.10,2013-08-15 07:49:00,
2013-08-15 04:04:00,61.5,54.0,30.11,NNE,20,3.0,5.0,77,0.00,,,0.00,weatherlink.com 1.10,2013-08-15 08:04:00,
2013-08-15 04:19:00,61.5,54.0,30.11,NW,325,1.0,6.0,77,0.00,,,0.00,weatherlink.com 1.10,2013-08-15 08:19:00,
2013-08-15 04:34:00,61.4,55.0,30.11,North,10,2.0,6.0,78,0.00,,,0.00,weatherlink.com 1.10,2013-08-15 08:34:00,
2013-08-15 04:49:00,61.3,55.0,30.11,North,11,2.0,6.0,79,0.00,,,0.00,weatherlink.com 1.10,2013-08-15 08:49:00,
2013-08-15 05:04:00,61.1,55.0,30.11,North,349,2.0,4.0,80,0.00,,,0.00,weatherlink.com 1.10,2013-08-15 09:04:00,
2013-08-15 05:19:00,60.9,54.0,30.11,NNW,345,1.0,5.0,79,0.00,,,0.00,weatherlink.com 1.10,2013-08-15 09:19:00,
2013-08-15 05:34:00,60.8,55.0,30.11,NNE,20,2.0,4.0,80,0.00,,,0.00,weatherlink.com 1.10,2013-08-15 09:34:00,
2013-08-15 05:49:00,60.9,55.0,30.11,North,359,2.0,4.0,80,0.00,,,0.00,weatherlink.com 1.10,2013-08-15 09:49:00,
2013-08-15 06:04:00,60.9,55.0,30.11,NNE,18,0.0,5.0,80,0.00,,,0.00,weatherlink.com 1.10,2013-08-15 10:04:00,
2013-08-15 06:19:00,60.8,55.0,30.11,NE,52,0.0,5.0,81,0.00,,,0.00,weatherlink.com 1.10,2013-08-15 10:19:00,
2013-08-15 06:34:00,60.7,55.0,30.11,ENE,77,0.0,4.0,82,0.00,,,0.00,weatherlink.com 1.10,2013-08-15 10:34:00,
2013-08-15 06:49:00,60.7,55.0,30.11,North,8,1.0,4.0,81,0.00,,,0.00,weatherlink.com 1.10,2013-08-15 10:49:00,
2013-08-15 07:04:00,60.4,55.0,30.12,North,11,1.0,3.0,81,0.00,,,0.00,weatherlink.com 1.10,2013-08-15 11:04:00,
2013-08-15 07:19:00,60.5,55.0,30.13,North,359,1.0,3.0,81,0.00,,,0.00,weatherlink.com 1.10,2013-08-15 11:19:00,
2013-08-15 07:34:00,60.6,55.0,30.13,NNE,27,2.0,3.0,82,0.00,,,0.00,weatherlink.com 1.10,2013-08-15 11:34:00,
2013-08-15 07:49:00,60.6,55.0,30.13,North,349,1.0,3.0,82,0.00,,,0.00,weatherlink.com 1.10,2013-08-15 11:49:00,
2013-08-15 08:04:00,61.5,55.0,30.13,NE,39,0.0,4.0,80,0.00,,,0.00,weatherlink.com 1.10,2013-08-15 12:04:00,
2013-08-15 08:19:00,62.2,56.0,30.14,NNW,336,0.0,3.0,79,0.00,,,0.00,weatherlink.com 1.10,2013-08-15 12:19:00,
2013-08-15 08:34:00,62.3,56.0,30.14,NNE,32,1.0,3.0,79,0.00,,,0.00,weatherlink.com 1.10,2013-08-15 12:34:00,
2013-08-15 08:49:00,63.0,56.0,30.14,NE,37,1.0,4.0,79,0.00,,,0.00,weatherlink.com 1.10,2013-08-15 12:49:00,
2013-08-15 09:04:00,63.7,56.0,30.15,NE,44,2.0,5.0,77,0.00,,,0.00,weatherlink.com 1.10,2013-08-15 13:04:00,
2013-08-15 09:19:00,67.2,58.0,30.15,NE,47,0.0,4.0,72,0.00,,,0.00,weatherlink.com 1.10,2013-08-15 13:19:00,
2013-08-15 09:34:00,67.9,57.0,30.15,NE,43,7.0,10.0,69,0.00,,,0.00,weatherlink.com 1.10,2013-08-15 13:34:00,
2013-08-15 09:49:00,68.0,58.0,30.14,NNE,27,0.0,5.0,70,0.00,,,0.00,weatherlink.com 1.10,2013-08-15 13:49:00,
2013-08-15 10:04:00,68.1,58.0,30.14,NE,56,2.0,5.0,70,0.00,,,0.00,weatherlink.com 1.10,2013-08-15 14:04:00,
2013-08-15 10:19:00,69.6,59.0,30.14,ENE,72,3.0,4.0,68,0.00,,,0.00,weatherlink.com 1.10,2013-08-15 14:19:00,
2013-08-15 10:34:00,70.8,60.0,30.14,East,80,0.0,4.0,68,0.00,,,0.00,weatherlink.com 1.10,2013-08-15 14:34:00,
2013-08-15 10:49:00,71.9,60.0,30.14,NNE,33,2.0,5.0,66,0.00,,,0.00,weatherlink.com 1.10,2013-08-15 14:49:00,
2013-08-15 11:04:00,72.2,60.0,30.14,NE,47,0.0,4.0,66,0.00,,,0.00,weatherlink.com 1.10,2013-08-15 15:04:00,
2013-08-15 11:19:00,74.1,62.0,30.14,ESE,119,2.0,3.0,65,0.00,,,0.00,weatherlink.com 1.10,2013-08-15 15:19:00,
2013-08-15 11:34:00,75.6,62.0,30.14,NE,35,2.0,6.0,63,0.00,,,0.00,weatherlink.com 1.10,2013-08-15 15:34:00,
2013-08-15 11:49:00,75.8,61.0,30.14,ENE,65,1.0,5.0,61,0.00,,,0.00,weatherlink.com 1.10,2013-08-15 15:49:00,
2013-08-15 12:04:00,78.3,63.0,30.14,East,81,2.0,4.0,60,0.00,,,0.00,weatherlink.com 1.10,2013-08-15 16:04:00,
2013-08-15 12:19:00,79.2,63.0,30.14,East,89,3.0,4.0,58,0.00,,,0.00,weatherlink.com 1.10,2013-08-15 16:19:00,
2013-08-15 12:34:00,79.0,62.0,30.13,ENE,78,2.0,6.0,57,0.00,,,0.00,weatherlink.com 1.10,2013-08-15 16:34:00,
2013-08-15 12:49:00,79.2,63.0,30.12,East,79,2.0,7.0,58,0.00,,,0.00,weatherlink.com 1.10,2013-08-15 16:49:00,
2013-08-15 13:05:00,80.4,63.0,30.11,NE,55,2.0,7.0,55,0.00,,,0.00,weatherlink.com 1.10,2013-08-15 17:05:00,
2013-08-15 13:20:00,78.3,63.0,30.11,East,92,2.0,9.0,59,0.00,,,0.00,weatherlink.com 1.10,2013-08-15 17:20:00,
2013-08-15 13:35:00,81.2,64.0,30.11,ENE,60,4.0,4.0,57,0.00,,,0.00,weatherlink.com 1.10,2013-08-15 17:35:00,
2013-08-15 13:50:00,80.8,64.0,30.11,NNE,18,0.0,7.0,57,0.00,,,0.00,weatherlink.com 1.10,2013-08-15 17:50:00,
2013-08-15 14:05:00,82.9,66.0,30.11,SE,146,2.0,4.0,56,0.00,,,0.00,weatherlink.com 1.10,2013-08-15 18:05:00,
2013-08-15 14:35:00,79.6,63.0,30.10,NW,307,1.0,6.0,57,0.00,,,0.00,weatherlink.com 1.10,2013-08-15 18:35:00,
2013-08-15 14:50:00,82.3,64.0,30.09,NE,41,1.0,4.0,54,0.00,,,0.00,weatherlink.com 1.10,2013-08-15 18:50:00,
2013-08-15 15:05:00,79.5,63.0,30.09,ENE,62,2.0,7.0,58,0.00,,,0.00,weatherlink.com 1.10,2013-08-15 19:05:00,
2013-08-15 15:20:00,78.2,63.0,30.09,East,95,2.0,5.0,60,0.00,,,0.00,weatherlink.com 1.10,2013-08-15 19:20:00,
2013-08-15 15:35:00,81.3,64.0,30.08,ENE,67,0.0,5.0,56,0.00,,,0.00,weatherlink.com 1.10,2013-08-15 19:35:00,
2013-08-15 15:50:00,79.2,63.0,30.08,ENE,62,1.0,7.0,57,0.00,,,0.00,weatherlink.com 1.10,2013-08-15 19:50:00,
2013-08-15 16:05:00,78.7,63.0,30.07,East,96,0.0,7.0,59,0.00,,,0.00,weatherlink.com 1.10,2013-08-15 20:05:00,
2013-08-15 16:20:00,80.2,64.0,30.07,NE,41,2.0,7.0,58,0.00,,,0.00,weatherlink.com 1.10,2013-08-15 20:20:00,
2013-08-15 16:35:00,80.7,63.0,30.07,ENE,60,4.0,7.0,55,0.00,,,0.00,weatherlink.com 1.10,2013-08-15 20:35:00,
2013-08-15 16:50:00,81.3,65.0,30.06,ESE,115,1.0,6.0,57,0.00,,,0.00,weatherlink.com 1.10,2013-08-15 20:50:00,
2013-08-15 17:05:00,81.9,65.0,30.07,NE,34,0.0,3.0,57,0.00,,,0.00,weatherlink.com 1.10,2013-08-15 21:05:00,
2013-08-15 17:20:00,82.0,63.0,30.07,North,359,1.0,3.0,52,0.00,,,0.00,weatherlink.com 1.10,2013-08-15 21:20:00,
2013-08-15 17:35:00,81.7,64.0,30.07,NE,38,0.0,2.0,55,0.00,,,0.00,weatherlink.com 1.10,2013-08-15 21:35:00,
2013-08-15 17:50:00,81.1,65.0,30.07,ENE,66,3.0,3.0,58,0.00,,,0.00,weatherlink.com 1.10,2013-08-15 21:50:00,
2013-08-15 18:05:00,80.5,63.0,30.07,ENE,65,1.0,5.0,56,0.00,,,0.00,weatherlink.com 1.10,2013-08-15 22:05:00,
2013-08-15 18:20:00,78.9,64.0,30.07,NE,49,0.0,5.0,61,0.00,,,0.00,weatherlink.com 1.10,2013-08-15 22:20:00,
2013-08-15 18:35:00,79.7,64.0,30.07,East,79,0.0,4.0,59,0.00,,,0.00,weatherlink.com 1.10,2013-08-15 22:35:00,
2013-08-15 18:50:00,79.9,64.0,30.07,NE,39,1.0,8.0,58,0.00,,,0.00,weatherlink.com 1.10,2013-08-15 22:50:00,
2013-08-15 19:05:00,79.1,63.0,30.07,NE,50,1.0,4.0,58,0.00,,,0.00,weatherlink.com 1.10,2013-08-15 23:05:00,
2013-08-15 19:20:00,77.9,63.0,30.07,NE,40,2.0,5.0,61,0.00,,,0.00,weatherlink.com 1.10,2013-08-15 23:20:00,
2013-08-15 19:35:00,77.3,63.0,30.07,ENE,75,0.0,5.0,62,0.00,,,0.00,weatherlink.com 1.10,2013-08-15 23:35:00,
2013-08-15 19:50:00,77.2,63.0,30.07,East,90,0.0,2.0,62,0.00,,,0.00,weatherlink.com 1.10,2013-08-15 23:50:00,
2013-08-15 20:20:00,76.5,64.0,30.08,ESE,103,2.0,3.0,65,0.00,,,0.00,weatherlink.com 1.10,2013-08-16 00:20:00,
2013-08-15 20:35:00,76.0,64.0,30.08,East,89,1.0,4.0,66,0.00,,,0.00,weatherlink.com 1.10,2013-08-16 00:35:00,
2013-08-15 20:50:00,75.6,64.0,30.08,East,90,2.0,4.0,68,0.00,,,0.00,weatherlink.com 1.10,2013-08-16 00:50:00,
2013-08-15 21:05:00,75.5,64.0,30.09,East,97,2.0,5.0,68,0.00,,,0.00,weatherlink.com 1.10,2013-08-16 01:05:00,
2013-08-15 21:20:00,75.3,64.0,30.09,East,91,2.0,4.0,69,0.00,,,0.00,weatherlink.com 1.10,2013-08-16 01:20:00,
2013-08-15 21:35:00,75.0,65.0,30.09,ESE,106,1.0,3.0,70,0.00,,,0.00,weatherlink.com 1.10,2013-08-16 01:35:00,
2013-08-15 21:50:00,74.3,65.0,30.10,WNW,287,0.0,2.0,72,0.00,,,0.00,weatherlink.com 1.10,2013-08-16 01:50:00,
2013-08-15 22:05:00,74.2,64.0,30.11,North,354,0.0,3.0,71,0.00,,,0.00,weatherlink.com 1.10,2013-08-16 02:05:00,
2013-08-15 22:20:00,73.0,65.0,30.11,NNW,333,0.0,2.0,75,0.00,,,0.00,weatherlink.com 1.10,2013-08-16 02:20:00,
2013-08-15 22:35:00,72.9,65.0,30.11,NE,42,2.0,4.0,75,0.00,,,0.00,weatherlink.com 1.10,2013-08-16 02:35:00,
2013-08-15 22:50:00,73.9,65.0,30.10,East,91,2.0,2.0,73,0.00,,,0.00,weatherlink.com 1.10,2013-08-16 02:50:00,
2013-08-15 23:05:00,73.5,65.0,30.10,East,91,0.0,3.0,75,0.00,,,0.00,weatherlink.com 1.10,2013-08-16 03:05:00,
2013-08-15 23:20:00,73.3,65.0,30.11,East,98,3.0,4.0,74,0.00,,,0.00,weatherlink.com 1.10,2013-08-16 03:20:00,
2013-08-15 23:35:00,72.7,66.0,30.11,SE,127,5.0,8.0,78,0.00,,,0.00,weatherlink.com 1.10,2013-08-16 03:35:00,
2013-08-15 23:50:00,71.9,66.0,30.11,SSE,151,2.0,8.0,81,0.00,,,0.00,weatherlink.com 1.10,2013-08-16 03:50:00,